CW0762 Weather Reports


Display with metric or nautical units.
time (UTC)temp
F
wind
direction
speed
MPH
gust
MPH
rain 1hr
in
rain 24hr
in
rain mn
in
humidity
%
barometer
mb
20260905181511 97 290 0.0 4.0 0.00 0.00 0.00 44 1013.9
20260905180009 97 46 0.0 3.0 0.00 0.00 0.00 48 1014.1
20260905174508 97 35 0.0 3.0 0.00 0.00 0.00 46 1014.3
20260905173008 96 75 2.0 6.0 0.00 0.00 0.00 47 1014.5
20260905171503 95 57 0.0 5.0 0.00 0.00 0.00 50 1014.6
20260905170116 94 47 0.0 4.0 0.00 0.00 0.00 48 1014.7
20260905164557 93 45 0.0 2.0 0.00 0.00 0.00 50 1014.8
20260905163055 92 116 1.0 7.0 0.00 0.00 0.00 53 1014.8
20260905161551 91 67 1.0 3.0 0.00 0.00 0.00 55 1014.8
20260905160047 90 111 1.0 5.0 0.00 0.00 0.00 58 1014.8
20260905154543 88 74 0.0 4.0 0.00 0.00 0.00 63 1014.9
20260905153040 87 130 0.0 3.0 0.00 0.00 0.00 64 1014.9
20260905151546 86 130 1.0 5.0 0.00 0.00 0.00 66 1014.8
20260905150037 85 123 1.0 4.0 0.00 0.00 0.00 68 1014.8
20260905144537 84 128 1.0 5.0 0.00 0.00 0.00 70 1014.7
20260905143046 83 118 2.0 7.0 0.00 0.00 0.00 71 1014.7
20260905141537 82 126 1.0 5.0 0.00 0.00 0.00 75 1014.8
20260905140034 80 105 0.0 3.0 0.00 0.00 0.00 80 1014.7
20260905134543 79 79 0.0 2.0 0.00 0.00 0.00 83 1014.6
20260905133034 78 98 0.0 2.0 0.00 0.00 0.00 85 1014.5
20260905131532 77 126 0.0 1.0 0.00 0.00 0.00 86 1014.4
20260905130030 77 126 0.0 0.0 0.00 0.00 0.00 85 1014.3
20260905124537 77 126 0.0 0.0 0.00 0.00 0.00 83 1014.2
20260905123026 77 126 0.0 0.0 0.00 0.00 0.00 82 1014.0
20260905121525 77 126 0.0 0.0 0.00 0.00 0.00 81 1013.8
20260905120025 77 126 0.0 0.0 0.00 0.00 0.00 80 1013.6
20260905114522 78 126 0.0 0.0 0.00 0.00 0.00 80 1013.7
20260905113022 78 126 0.0 1.0 0.00 0.00 0.00 80 1013.6
20260905111522 78 127 0.0 0.0 0.00 0.00 0.00 78 1013.5
20260905110018 79 127 0.0 0.0 0.00 0.00 0.00 77 1013.6
20260905104516 79 126 0.0 0.0 0.00 0.00 0.00 77 1013.7
20260905103014 80 126 0.0 0.0 0.00 0.00 0.00 76 1013.8
20260905101522 80 126 0.0 0.0 0.00 0.00 0.00 74 1013.8
20260905100010 81 126 0.0 0.0 0.00 0.00 0.00 73 1013.7
20260905094508 81 126 0.0 0.0 0.00 0.00 0.00 73 1013.6
20260905093006 81 126 0.0 1.0 0.00 0.00 0.00 73 1013.5
20260905091509 81 126 0.0 2.0 0.00 0.00 0.00 73 1013.4
20260905090006 81 126 0.0 3.0 0.00 0.00 0.00 73 1013.3
20260905084504 81 126 0.0 4.0 0.00 0.00 0.00 72 1013.4
20260905083003 82 132 0.0 1.0 0.00 0.00 0.00 71 1013.3
20260905081502 82 132 0.0 0.0 0.00 0.00 0.00 70 1013.3
20260905080107 82 132 0.0 2.0 0.00 0.00 0.00 70 1013.2
20260905074559 83 132 0.0 2.0 0.00 0.00 0.00 69 1013.1
20260905073058 83 132 0.0 3.0 0.00 0.00 0.00 68 1013.3
20260905071556 83 143 0.0 4.0 0.00 0.00 0.00 68 1013.4
20260905070104 84 130 0.0 4.0 0.00 0.00 0.00 67 1013.5
20260905064552 85 130 0.0 2.0 0.00 0.00 0.00 66 1013.5
20260905063056 85 130 0.0 1.0 0.00 0.00 0.00 65 1013.4
20260905061550 86 133 0.0 5.0 0.00 0.00 0.00 63 1013.5
20260905060046 86 24 0.0 5.0 0.00 0.00 0.00 62 1013.5
20260905054552 86 39 1.0 5.0 0.00 0.00 0.00 62 1013.3
20260905053041 86 57 1.0 4.0 0.00 0.00 0.00 62 1013.3
20260905051541 87 65 0.0 2.0 0.00 0.00 0.00 60 1013.2
20260905050037 87 43 1.0 5.0 0.00 0.00 0.00 59 1013.2
20260905044537 88 44 0.0 2.0 0.00 0.00 0.00 58 1013.1
20260905043037 88 51 1.0 4.0 0.00 0.00 0.00 57 1013.1
20260905041536 89 134 1.0 4.0 0.00 0.00 0.00 56 1013.1
20260905040047 89 40 1.0 5.0 0.00 0.00 0.00 54 1013.2
20260905034535 89 42 1.0 5.0 0.00 0.00 0.00 52 1013.3
20260905033035 89 53 1.0 4.0 0.00 0.00 0.00 51 1013.2
20260905031535 90 47 1.0 3.0 0.00 0.00 0.00 50 1013.1
20260905030040 90 70 1.0 4.0 0.00 0.00 0.00 50 1013.0
20260905024534 90 50 0.0 4.0 0.00 0.00 0.00 50 1012.8
20260905023033 91 52 0.0 2.0 0.00 0.00 0.00 49 1012.7
20260905021534 91 51 0.0 3.0 0.00 0.00 0.00 49 1012.4
20260905020033 91 59 0.0 4.0 0.00 0.00 0.00 49 1012.1
20260905014533 92 53 1.0 4.0 0.00 0.00 0.00 49 1011.9
20260905013035 92 55 1.0 4.0 0.00 0.00 0.00 48 1011.8
20260905011532 93 60 2.0 7.0 0.00 0.00 0.00 48 1011.5
20260905010041 93 46 1.0 10.0 0.00 0.00 0.00 48 1011.4
20260905004531 94 37 2.0 6.0 0.00 0.00 0.00 47 1011.3
20260905003036 95 53 2.0 7.0 0.00 0.00 0.00 46 1011.1
20260905001529 95 57 0.0 4.0 0.00 0.00 0.00 45 1010.9
20260905000030 96 63 1.0 6.0 0.00 0.00 0.00 44 1010.9
20260904234529 97 46 2.0 5.0 0.00 0.00 0.00 42 1010.9
20260904233029 97 50 1.0 5.0 0.00 0.00 0.00 41 1010.8
20260904231533 98 55 2.0 5.0 0.00 0.00 0.00 41 1010.8
20260904230043 98 360 0.0 4.0 0.00 0.00 0.00 41 1010.9
20260904224530 98 44 2.0 9.0 0.00 0.00 0.00 40 1011.0
20260904223026 99 44 1.0 6.0 0.00 0.00 0.00 39 1011.0
20260904221524 99 38 1.0 5.0 0.00 0.00 0.00 39 1011.2
20260904220023 99 54 2.0 7.0 0.00 0.00 0.00 39 1011.2
20260904214523 100 351 1.0 7.0 0.00 0.00 0.00 39 1011.4
20260904213021 100 17 0.0 4.0 0.00 0.00 0.00 41 1011.4
20260904211519 100 60 0.0 5.0 0.00 0.00 0.00 41 1011.6
20260904210018 100 149 0.0 6.0 0.00 0.00 0.00 40 1011.8
20260904204516 100 56 1.0 5.0 0.00 0.00 0.00 40 1011.9
20260904203014 100 28 2.0 7.0 0.00 0.00 0.00 41 1012.1
20260904201511 99 64 0.0 5.0 0.00 0.00 0.00 41 1012.4
20260904200011 99 49 2.0 7.0 0.00 0.00 0.00 42 1012.7
20260904194505 98 71 0.0 4.0 0.00 0.00 0.00 46 1012.8
20260904193003 98 51 1.0 6.0 0.00 0.00 0.00 44 1012.9
20260904191501 97 64 2.0 6.0 0.00 0.00 0.00 46 1013.1
20260904184601 97 58 1.0 5.0 0.00 0.00 0.00 48 1013.5
20260904183113 96 44 1.0 5.0 0.00 0.00 0.00 50 1013.7